Zurück zum Katalog

USA 144 DEB

AktivMEO
NORAD 25746·DEBRIS·🇺🇸 United States

Gestartet May 22, 1999 von Vandenberg Space Force Base

Loading…

Nächste Überflüge (nächste 24 Stunden)

TLE

VeraltetSource: Mike McCants

Epoche: Jul 19, 2026, 21:13 UTC

1 25746U 99028C   26200.88435172 0.00000000  00000-0  00000-0 0    03
2 25746  63.4359 102.9437 0280910 303.6938  56.3062  9.70083779    06

Verfolge USA 144 DEB in Echtzeit mit AllMySat

Download on the App Store